Regional Weather Roundup
Issued by NWS

Current Version | Previous Version | Text Only | Print | Product List | Glossary On
Versions: 1 2 3 4 5 6 7 8 9 10 11 12 13 14 15 16 17 18 19 20 21 22 23 24 25 26 27 28 29 30 31 32 33 34 35 36 37 38 39 40 41 42 43 44 45 46 47 48 49 50
000
ASUS42 KTBW 300610
RWRFL
FLORIDA REGIONAL WEATHER ROUNDUP
NATIONAL WEATHER SERVICE TAMPA BAY RUSKIN FL
200 AM EDT SAT AUG 30 2014

NOTE: "FAIR" INDICATES FEW OR NO CLOUDS BELOW 12,000 FEET WITH NO
SIGNIFICANT WEATHER AND/OR OBSTRUCTIONS TO VISIBILITY.


FLZ001>010-012>015-112-114-115-300700-
PANHANDLE FLORIDA

CITY           SKY/WX    TMP DP  RH WIND       PRES   REMARKS
PENSACOLA      FAIR      77  74  90 SW6       30.06R
PENSACOLA NAS  FAIR      80  76  87 S12       30.06R
MILTON NAS     FAIR      76  71  85 W6        30.07R
CRESTVIEW      FAIR      76  74  93 CALM      30.08R
DUKE FIELD     FAIR      78  77  96 S6        30.07R
VALPARAISO     MOCLDY    82  77  84 SW7       30.06S
MARY ESTHER    FAIR      81  72  74 S6        30.05S
TRI COUNTY     LGT RAIN  74  73  97 CALM      30.09R
PANAMA CITY    FAIR      77  74  90 CALM      30.08R
TYNDALL AFB    FAIR      82  76  80 SW8       30.09R
APALACHICOLA   FAIR      81  76  84 SW5       30.08R

STATION/POSITION SKY/WX   TEMP    WIND        PRES    WAVE   SWELL
                          AIR SEA DIR/SP/G            HT/PER HT/PER
                          (F)     (DEG/KT/KT) (MB)    (FT/S) (FT/S)
30.1N   87.6W              82 85  140/ 14/ 16 1017.9R   3/ 6   2/14
28.8N   86.0W              85 86  160/  6/  8 1018.5R   2/ 5   2/ 5
PANAMA CITY BEAC           84 85  210/ 11/ 13 1018.6R
CAPE SAN BLAS    NOT AVBL
TOWER C                    83     200/  6/  7 1018.7R
28.5N   84.5W              85 86  160/  8/ 10 1018.9R   2/ 5   2/ 5

$$
FLZ011-016>038-118-127-128-134-139-239-300700-
NORTH FLORIDA

CITY           SKY/WX    TMP DP  RH WIND       PRES   REMARKS
MARIANNA       FAIR      75  75 100 CALM      30.08R
TALLAHASSEE    FAIR      77  74  90 CALM      30.10R
PERRY          FAIR      73  72  94 E5        30.11F
CROSS CITY       N/A     75  72  90 CALM      30.11R
LAKE CITY      FAIR      72  72 100 CALM      30.11F
GAINESVILLE    CLOUDY    73  72  96 NE3       30.10F FOG
MAYPORT NAS    CLOUDY    77  72  84 SW3       30.10F
JACKSONVILLE   MOCLDY    77  75  93 S3        30.10F
JAX NAS        FAIR      81  73  76 W8        30.10F
JAX CRAIG      FAIR      77  72  84 CALM      30.10F
JAX CECIL      MOCLDY    75  73  94 W3        30.11F
FERNANDINA BEA MOCLDY    79  72  78 SW10      30.09F
ST AUGUSTINE   FAIR      76  72  87 SW5       30.12R

STATION/POSITION SKY/WX   TEMP    WIND        PRES    WAVE   SWELL
                          AIR SEA DIR/SP/G            HT/PER HT/PER
                          (F)     (DEG/KT/KT) (MB)    (FT/S) (FT/S)
SHELL POINT                81        CALM       N/A
KEATON BEACH               76     100/  7/  8 1019.5S
CEDAR KEY                  81     120/  9/  9 1019.8S
FERNANDINA                 79 85  200/  8/  9 1018.9F
30.7N   81.3W                 84                N/A     3/ 4
MAYPORT                    78 84  210/  3/  6   N/A
31.4N   80.9W              83 84  170/ 12/ 14 1019.5R   3/ 8   2/ 8
ST AUGUSTINE               76     190/  6/  7 1020.3R

$$
FLZ040-043>046-052-053-057-058-063-144-300700-
INTERIOR CENTRAL FLORIDA

CITY           SKY/WX    TMP DP  RH WIND       PRES   REMARKS
OCALA          FAIR      73  72  94 N6        30.09F
LEESBURG       FAIR      75  73  93 CALM      30.11R
SANFORD        FAIR      75  73  93 CALM      30.10R
ORLANDO EXEC   FAIR      76  73  91 CALM      30.10R
ORLANDO INTL   CLOUDY    75  73  93 W3        30.11R
WINTER HAVEN   FAIR      74  72  93 CALM      30.13R
LAKELAND       FAIR     N/A N/A N/A NE3       30.11S
BARTOW         FAIR      72 N/A N/A NW3       30.12R
OKEECHOBEE       N/A     73  72  94 MISG      30.10

$$
FLZ041-047-054-059-064-141-147-300700-
EAST CENTRAL FLORIDA

CITY           SKY/WX    TMP DP  RH WIND       PRES   REMARKS
DAYTONA BEACH  FAIR      74  72  93 NW3       30.11S
DELAND         FAIR      73  73 100 N6        30.11S
JFK SPACE CTR  FAIR      73  72  96 SE5       30.09F
CAPE CANAVERAL FAIR      74  73  94 SE2       30.08F
PATRICK AFB    FAIR      77  75  93 E1        30.09F
MELBOURNE      FAIR      76  74  93 CALM      30.09F
VERO BEACH     FAIR      72  71  97 CALM      30.09F
FT PIERCE      FAIR      78  74  87 SE6       30.08F
STUART         FAIR      79  73  83 CALM      30.11F

STATION/POSITION SKY/WX   TEMP    WIND        PRES    WAVE   SWELL
                          AIR SEA DIR/SP/G            HT/PER HT/PER
                          (F)     (DEG/KT/KT) (MB)    (FT/S) (FT/S)
28.5N   80.2W              81 83  160/  6/  8 1019.5F
28.9N   78.5W              83 84  160/  2/  4 1020.4F   3/ 8   3/ 8
TRIDENT PIER               79 85  150/  5/  8 1018.4F
28.4N   80.5W                 83                N/A     2/ 8
27.6N   80.2W                 85                N/A     3/ 8

$$
FLZ050-056-061-142-242-148-248-149-249-151-251-155-255-
160-260-300700-
WEST CENTRAL FLORIDA

CITY           SKY/WX    TMP DP  RH WIND       PRES   REMARKS
CRYSTAL RIVER  FAIR      73  72  94 CALM      30.10S
INVERNESS      FAIR      73  72  94 CALM      30.11R
BROOKSVILLE    FAIR      74  72  93 SE3       30.12R
ZEPHYRHILLS    FAIR      70  70 100 CALM      30.11F
CLEARWATER     FAIR      77  73  87 SE5       30.09S
TAMPA INTL     CLOUDY    79  69  71 CALM      30.11R
TAMPA EXEC     FAIR      75  72  88 CALM      30.11S
PLANT CITY     FAIR      75 N/A N/A CALM      30.12S
MACDILL AFB    FAIR      78  73  84 NE2       30.10R
ST PETERSBURG  FAIR      80  72  76 S6        30.08S
SARASOTA       FAIR      76  72  87 E7        30.08S
VENICE           N/A    N/A N/A N/A MISG        N/A

STATION/POSITION SKY/WX   TEMP    WIND        PRES    WAVE   SWELL
                          AIR SEA DIR/SP/G            HT/PER HT/PER
                          (F)     (DEG/KT/KT) (MB)    (FT/S) (FT/S)
CEDAR KEY                  81     120/  9/  9 1019.8S
28.5N   84.5W              85 86  160/  8/ 10 1018.9R   2/ 5   2/ 5
27.3N   84.3W                 86                N/A     2/ 5
CLEARWATER BEACH           81 87   10/  5/  5 1018.5F
MIDDLE TAMPA BAY           79     130/  8/  9 1019.3R
VENICE                     76 88   90/  8/  9 1018.6S

$$
FLZ066-069-070-075>078-162-262-165-265-300700-
SOUTHWEST FLORIDA AND KEYS

CITY           SKY/WX    TMP DP  RH WIND       PRES   REMARKS
PUNTA GORDA    FAIR      77  74  90 E6        30.10F
FT MYERS       FAIR      74  73  97 E8        30.09S
SOUTHWEST INTL FAIR      75  72  90 E7        30.09F
NAPLES         FAIR      76  72  87 E8        30.09F
MARCO ISLAND   FAIR      75  72  88 E7        30.09F
MARATHON       FAIR      86  78  77 SE7       30.07F HX  98
KEY WEST NAS   FAIR      85  75  72 E16       30.07F
KEY WEST INTL  FAIR      86  76  71 E17G23    30.07F HX  96

STATION/POSITION SKY/WX   TEMP    WIND        PRES    WAVE   SWELL
                          AIR SEA DIR/SP/G            HT/PER HT/PER
                          (F)     (DEG/KT/KT) (MB)    (FT/S) (FT/S)
VENICE                     76 88   90/  8/  9 1018.6S
NAPLES                     77      90/  4/  7 1019.5F
DRY TORTUGAS               87     110/ 21/ 23 1017.7F
NW FL BAY                  87     110/ 13/ 15 1018.9S
SAND KEY                   86     110/ 18/ 20 1018.0F
SOMBRERO KEY               86     110/ 16/ 17 1019.0F
LONG KEY                   86 87   90/  8/ 10 1019.7R
MOLASSES REEF              86 87  110/ 15/ 18 1018.2F

$$
FLZ067-068-071>074-168-172>174-300700-
SOUTHEAST FLORIDA

CITY           SKY/WX    TMP DP  RH WIND       PRES   REMARKS
W PALM BEACH   FAIR      84  76  76 E5        30.09F
FT LAUDER-EXEC FAIR      84  78  82 E8        30.09F HX  95
FT LAUDERDALE  FAIR      86  76  71 E9        30.09F HX  96
POMPANO BEACH  FAIR      86  75  69 E7        30.10F HX  95
PEMBROKE PINES MOCLDY    82  75  79 E6        30.10F THUNDER
OPA LOCKA      MOCLDY    84  77  79 E6        30.10F
MIAMI          FAIR      85  76  74 SE8       30.09F
WEST KENDALL   FAIR      86  76  71 SE8       30.09F HX  96
HOMESTEAD      FAIR      85  76  74 E8        30.08F

STATION/POSITION SKY/WX   TEMP    WIND        PRES    WAVE   SWELL
                          AIR SEA DIR/SP/G            HT/PER HT/PER
                          (F)     (DEG/KT/KT) (MB)    (FT/S) (FT/S)
PORT EVERGLADES            86      90/  8/ 14 1019.0
VIRGINIA KEY               86 87  130/ 10/ 13   N/A
LAKE WORTH                 85 87  110/  8/ 10 1019.1R
FOWEY ROCKS                86 87  120/ 17/ 18 1018.8F
SETTLEMENT POINT           83     110/  3/  4 1020.1F

$$




USA.gov is the U.S. government's official web portal to all federal, state and local government web resources and services.